Regional Weather Roundup
Issued by NWS Northern Indiana

Home | Current Version | Previous Version | Graphics & Text | Print | Product List | Glossary On
Versions: 1 2 3 4 5 6 7 8 9 10 11 12 13 14 15 16 17 18 19 20 21 22 23 24 25 26 27 28 29 30 31 32 33 34 35 36 37 38 39 40 41 42 43 44 45 46 47 48 49 50
000
ASUS43 KIWX 282110
RWRIWX

KIWX WEATHER ROUNDUP
NATIONAL WEATHER SERVICE NORTHERN INDIANA
500 PM EDT WED JUN 28 2017

NOTE: "FAIR" INDICATES FEW OR NO CLOUDS BELOW 12,000 FEET WITH NO
SIGNIFICANT WEATHER AND/OR OBSTRUCTIONS TO VISIBILITY.

* THESE STATIONS ARE NOT UNDER NWS QUALITY CONTROL. THEY ALSO MAY NOT
  REPORT WEATHER SUCH AS PRECIPITATION OR FOG.

INZ001>027-282200-
NORTHERN INDIANA

CITY           SKY/WX    TMP DP  RH WIND       PRES   REMARKS
GARY*          CLOUDY    81  55  41 S14G28    29.87F
VALPARAISO     CLOUDY    80  58  46 S17G25    29.92S
MICHIGAN CITY* CLOUDY    75  55  50 S8G17     29.91R
LAPORTE*       CLOUDY    76  57  52 S9G21     29.93R
KNOX*          CLOUDY    79  45  29 S15G26    29.93S
SOUTH BEND     CLOUDY    75  56  51 S21       29.93F
ELKHART*       PTSUNNY   77  52  41 S18G25    29.93F
GOSHEN         CLOUDY    77  50  38 S17       29.95F
MONTICELLO*    SUNNY     80  55  43 S13G23    29.94S
LOGANSPORT*    MOSUNNY   79  55  44 S20       29.97R
ROCHESTER*     CLOUDY    81  54  39 S15G22    29.95F
WARSAW*        MOSUNNY   75  52  43 S8G16     29.96F
AUBURN*        CLOUDY    79  46  31 S9        30.00F
FORT WAYNE     CLOUDY    77  51  40 S16       30.00F
HUNTINGTON*    CLOUDY    77  49  37 S13       29.98F
PERU/GRISSOM   MOSUNNY   80  57  45 S17       29.96F
MARION*        MOSUNNY   79  52  38 S17       30.01F HAZE

$$
INZ028>050-282200-
CENTRAL INDIANA

CITY           SKY/WX    TMP DP  RH WIND       PRES   REMARKS
LAFAYETTE      CLOUDY    80  58  46 S13G22    29.95F
KOKOMO*        PTSUNNY   79  55  43 S20       29.99F
MUNCIE*        CLOUDY    80  53  39 S14G24    30.01F
INDIANAPOLIS   CLOUDY    79  56  45 S16       30.00F

$$
MIZ043>046-050>051-056>058-064>065-071>073-077>080-282200-
SOUTHWEST LOWER MICHIGAN

CITY           SKY/WX    TMP DP  RH WIND       PRES   REMARKS
BATTLE CREEK   CLOUDY    74  53  48 S20G30    29.94S
BENTON HARBOR  CLOUDY    76  54  46 S15G28    29.89F
COLDWATER*     CLOUDY    74  49  41 S12       29.97R
HILLSDALE*     CLOUDY    73  48  40 S12G22    29.98F
HOLLAND        CLOUDY    73  58  59 S9        29.90F
GRAND RAPIDS   CLOUDY    73  58  59 S10       29.92S
KALAMAZOO      CLOUDY    75  52  44 S15G28    29.92R
STURGIS*       CLOUDY    75  54  47 S16G25    29.94F
THREE RIVERS*  FAIR      74  52  45 S16G25    29.93F

$$
OHZ001>008-015>018-024>025-282200-
NORTHWEST OHIO

CITY           SKY/WX    TMP DP  RH WIND       PRES   REMARKS
WAUSEON*       FAIR      77  48  36 S13G18    30.00F
DEFIANCE       MOSUNNY   76  51  41 S10G21    30.01F
FINDLAY        PTSUNNY   79  50  36 S12       30.04F
TOLEDO EXPRESS CLOUDY    76  53  44 S9        30.02F
TOLEDO METCALF MOSUNNY   78  49  35 SW12G21   30.04F
LIMA           PTSUNNY   76  51  41 SW10G21   30.05F

$$
AND FOR LAKE MICHIGAN COASTAL AND OPEN LAKE BUOY OBSERVATIONS

STATION/POSITION TEMP    WIND        PRES    VSBY  WAVE
                 AIR SEA DIR/SP/G                  HT/PER
                 (F)     (DEG/KT/KT) (MB)    (MI)  (FT/S)
CALUMET HARBOR    80     170/ 14/ 24 1010.1F
MICHIGAN CITY     75     170/ 17/ 21   N/A
BURNS HARBOR      77     180/ 14/ 23 1012.2F
SOUTH LAKE BUOY   65 60  170/ 17/ 19 1010.9          4/ 5
4 MI NW BRIDGMAN  73 67  190/ 19/ 27 1011.9          4/ 3
MICHIGAN CITY     73 66  180/ 17/ 21   N/A           3/ 3

$$
&&




USA.gov is the U.S. government's official web portal to all federal, state and local government web resources and services.